Weather Roundup
Issued by NWS Chicago, IL

Home | Current Version | Previous Version | Graphics & Text | Print | Product List | Glossary On
Versions: 1 2 3 4 5 6 7 8 9 10 11 12 13 14 15 16 17 18 19 20 21 22 23 24 25 26 27 28 29 30 31 32 33 34 35 36 37 38 39 40 41 42 43 44 45 46 47 48 49 50
000
NZUS59 KLOT 302300
HRRLOT

CHICAGO AREA WEATHER ROUNDUP
NATIONAL WEATHER SERVICE CHICAGO/ROMEOVILLE IL
600 PM CDT WED JUL 30 2014

NOTE: "FAIR" INDICATES FEW OR NO CLOUDS BELOW 12,000 FEET WITH NO
SIGNIFICANT WEATHER AND/OR OBSTRUCTIONS TO VISIBILITY.

* THESE STATIONS ARE NOT UNDER NWS QUALITY CONTROL. THEY ALSO MAY NOT
  REPORT WEATHER SUCH AS PRECIPITATION OR FOG.

ILZ005-006-012>014-019>023-310000-
NORTHEAST ILLINOIS

CITY           SKY/WX    TMP DP  RH WIND       PRES   REMARKS
OHARE          MOSUNNY   73  56  54 NE9       30.00F
MIDWAY         MOSUNNY   73  60  63 E7        30.01F
AURORA         SUNNY     77  59  53 W8        30.01F
LANSING*       SUNNY     70  59  69 NE7       30.01F
WAUKEGAN       SUNNY     67  56  67 E8        30.01F
DUPAGE AIRPORT MOSUNNY   76  56  49 NW8       30.00F
WHEELING       SUNNY     71  57  61 E6        30.03S
NORTHERLY IS     N/A     66  59  78 NE5         N/A
$$

WIZ051-052-058>065-066-070>072-310000-
SOUTHEAST WISCONSIN

CITY           SKY/WX    TMP DP  RH WIND       PRES   REMARKS
MILWAUKEE      MOSUNNY   69  53  56 SE5       30.01F
KENOSHA*       SUNNY     69  58  67 NE9       30.02F
RACINE*        MOSUNNY   68  52  56 SE6       30.03F
WAUKESHA       MOSUNNY   72  55  56 NW6       30.02F
$$

INZ001>003-010>013-019-020-310000-
NORTHWEST INDIANA

CITY           SKY/WX    TMP DP  RH WIND       PRES   REMARKS
GARY*          MOSUNNY   70  61  73 NE9       30.02F
MICHIGAN CITY* NOT AVBL
RENSSELAER*    NOT AVBL
VALPARAISO     SUNNY     73  58  59 N6        30.01S
$$

LMZ740>746-310000-
SOUTHERN LAKE MICHIGAN

STATION/POSITION TIME  SKY/WX   TEMP WIND        PRES    VSBY
                                AIR  DIR/SP/G
                 (UTC)          (F)  (DEG/KT/KT) (MB)    (MI)
HARRISON CRIB    2200            63   40/  6/  7   N/A
BURNHAM HARBOR   2300            66   40/  6/ 11   N/A
CALUMET HARBOR   2200            66   50/  5/  7 1015.3F
BURNS HARBOR     2300            67   50/  9/ 10 1016.9F
MICHIGAN CITY    2200            64   10/ 10/ 12   N/A
$$

ABBREVIATIONS USED IN REMARKS
   TC - TEMPERATURE IN CELSIUS
  WCI - WIND CHILL INDEX
   HX - HEAT INDEX
  VSB - VISIBILITY
$$


USA.gov is the U.S. government's official web portal to all federal, state and local government web resources and services.